Location: Falniów
(50.3639°N, 19.9642°E)
Time: 01:54:55
(UTC+00:00)

Cosmos 1666 Rocket - Pass Details

Date: 18 January 2026
Orbit: 598 x 624 km, 82.5° (Epoch: 6 February)

Event Time Altitude Azimuth Distance (km) Brightness Sun altitude
Rises 04:56:33 0° 192° (SSW) 2,858 7.0 -14.7°
Reaches altitude 10° 04:58:45 10° 194° (SSW) 1,963 6.1 -14.4°
Maximum altitude 05:03:06 77° 281° (W) 639 3.4 -13.7°
Drops below altitude 10° 05:07:32 10° 8° (N) 1,996 6.1 -13.0°
Sets 05:09:47 0° 10° (N) 2,910 6.9 -12.7°
